Hourly Data Report for September 21, 2017

All times are specified in Local Standard Time (LST). Add 1 hour to adjust for Daylight Saving Time where and when it is observed.

KOUCHIBOUGUAC CS
NEW BRUNSWICK

46°47'00.000" N
65°01'00.000" W
21.00 m
8102328
71670
AKC

Download Data

Hourly Data (September 2017)
Hourly Data Report for September 21, 2017
Temp Definition
°C
Dew Point Temp Definition
°C
Rel Hum Definition
%
Wind Dir Definition
10's deg

Wind Spd Definition
km/h
Visibility Definition
km
Stn Press Definition
kPa
Hmdx Definition


Wind Chill Definition


Weather Definition


TIME
00:00 11.9 11.6 98 17 1   101.68     LegendNANA
01:00 10.2 9.9 98 0 1   101.72     LegendNANA
02:00 12.2 12.0 99 34 5   101.70     LegendNANA
03:00 11.3 11.1 99 28 2   101.73     LegendNANA
04:00 9.0 8.8 99   0   101.76     LegendNANA
05:00 8.4 8.2 99 34 4   101.78     LegendNANA
06:00 7.8 7.6 99 34 1   101.85     LegendNANA
07:00 9.6 9.5 99 1 5   101.88     LegendNANA
08:00 13.3 13.0 98 1 5   101.92     LegendNANA
09:00 15.6 10.8 73 3 12   102.00     LegendNANA
10:00 16.7 10.7 67 2 11   102.07     LegendNANA
11:00 17.0 10.4 65 3 9   102.08     LegendNANA
12:00 17.3 11.2 67 3 8   102.08     LegendNANA
13:00 17.5 10.8 65 5 9   102.10     LegendNANA
14:00 17.5 10.4 63 4 10   102.07     LegendNANA
15:00 17.4 9.3 59 5 8   102.05     LegendNANA
16:00 17.1 9.3 60 5 7   102.04     LegendNANA
17:00 16.1 8.9 62 10 6   102.08     LegendNANA
18:00 13.8 9.9 77 9 2   102.08     LegendNANA
19:00 9.6 8.7 95   0   102.11     LegendNANA
20:00 7.7 7.1 96 16 3   102.14     LegendNANA
21:00 6.6 6.2 97 15 2   102.15     LegendNANA
22:00 5.2 4.9 98 15 1   102.13     LegendNANA
23:00 4.7 4.5 98 15 2   102.14     LegendNANA

Notes on Data Quality.

Legend

  • E = Estimated
  • M = Missing
  • NA = Not Available
  • ‡ = Partner data that is not subject to review by the National Climate Archives
Date modified: